Showing default

ASCENT, 51287

Orbit data source: Space-Track

ASCENT, 51287 is a payload satellite owned by AFRL/RV (US) in GEO that was launched on Tue, 07 Dec 2021 UTC via an ATLAS V 551 launch vehicle from the Air Force Eastern Test Range (AFETR). Payload-class satellites include a variety of spacecraft equipped with specific instruments for various scientific and technological missions. These include communications satellites like Starlink; space stations such as the ISS; scientific satellites like the Hubble; Earth observation satellites from companies like Planet Labs, Umbra, and HawkEye 360; GPS; miniature CubeSats for education and research; and military/defense satellites.

Not visible in the next 10 days
Identifier
51287, 2021-118E
Orbit
GEO
Country
Flag of USUS
Related business
Manufacturer
Blue Canyon
Mission
Operational Defense Technology
Bus & Motor
CUBESAT 12U, Unknown motor
Mass
~25 kg wet, ~25 kg dry
Launch date (UTC)
2021-12-07 (5 years ago)
Launch vehicle
ATLAS V 551
Launch site
Air Force Eastern Test Range (AFETR)
Object type
Payload
Rocket body
Debris
Shape & HBR
Box, 0.1 m
Radar Cross Section
0.080 m², Large (>1 m²)

Expand to show TLE details & history
Last TLE update: 3 days ago

TLE from 3 days ago
0 ASCENT
1 51287U 21118E   26170.29828220 -.00000168  00000-0  00000-0 0  9991
2 51287   4.1771  77.2159 0004918 107.0516 252.7317  1.01223565 16344
Epoch: 2026-06-19T07:09Z
TLE epoch observation values (Epoch: 2026-06-19T07:09:31.582Z)
Latitude
0.00001°
Longitude
62.05003°
Altitude
35,527.46 km
Speed
3.084 km/s
True Right ascension
05h 07m 50s
True Declination
0° 00' 00"
Sunlit
Object was in daylight at epoch
Visualization orbit readout
Latitude
Unknown
Longitude
Unknown
Altitude
Unknown
Speed
Unknown
Apparent Right ascension
Unknown
Apparent Declination
Unknown
Sunlit
N/A
Visualization observer readout
Local Sidereal Time
21:39:28
Azimuth
Unknown
Elevation
Unknown
Doppler factor
Unknown
Orbital elements
Apogee altitude
35,543.545 km
Perigee altitude
35,502.331 km
Semi-major axis
41,901.075 km
Eccentricity
0.00049
Inclination
4.1771°
RAAN
77.2159°
Arg. of periapsis
107.0516°
True anomaly
252.67789°
Mean anomaly
252.7317°
Eccentric anomaly
252.7048°
Mean motion
0.25305 °/min
Orbital period
1,422.65 mins
BSTAR
0
Loading maneuver chart data...
Computing Atmospheric mass density...
Loading historical data...
Loading historical data...
Loading historical data...
Loading historical data...
Loading historical data...
Loading historical data...
Loading historical data...
Other satellites on launch #118 in the year 2021 (2021-12-07 UTC)

Documentation

Showing up to 5 results
|